WIF773P SBRJ-FACT

Flight info

Callsign WIF773P
Flight time N/A
Altitude 35000
Route ADA DCT CIDER DCT 28S030W 31S020W/N0464F370 DCT ITGIV/N0458F390 DCT GERAM DCT ETULA DCT ASPIK ASPIK1C
Aircraft E195/M-SDE3GILORVW/S

Departure

Time 2026-05-04 20:34
Airport Santos Dumont Airport (SBRJ)

Arrival

Time N/A
Airport Cape Town International Airport (FACT)
Time Latitude Longitude Altitude Speed Heading
2026-05-04 20:08 -22.91208 -43.16578 27 ft 0 kts 266°
2026-05-04 20:26 -22.91208 -43.16575 27 ft 3 kts 266°
2026-05-04 20:26 -22.91206 -43.16549 26 ft 2 kts 266°
2026-05-04 20:26 -22.91206 -43.16531 25 ft 1 kts 277°
2026-05-04 20:27 -22.91209 -43.16519 25 ft 1 kts 295°
2026-05-04 20:27 -22.91213 -43.16511 24 ft 1 kts 310°
2026-05-04 20:27 -22.91219 -43.16504 24 ft 1 kts 325°
2026-05-04 20:27 -22.91226 -43.16500 24 ft 0 kts 339°
2026-05-04 20:28 -22.91223 -43.16501 24 ft 1 kts 339°
2026-05-04 20:29 -22.91210 -43.16506 24 ft 1 kts 341°
2026-05-04 20:29 -22.91193 -43.16511 24 ft 4 kts 347°
2026-05-04 20:29 -22.91141 -43.16518 25 ft 9 kts 352°
2026-05-04 20:29 -22.91064 -43.16535 26 ft 12 kts 352°
2026-05-04 20:30 -22.90970 -43.16544 26 ft 14 kts 356°
2026-05-04 20:30 -22.90861 -43.16551 26 ft 16 kts 357°
2026-05-04 20:30 -22.90747 -43.16544 27 ft 16 kts 356°
2026-05-04 20:30 -22.90632 -43.16551 27 ft 16 kts 357°
2026-05-04 20:31 -22.90524 -43.16557 27 ft 8 kts 11°
2026-05-04 20:31 -22.90499 -43.16508 27 ft 8 kts 85°
2026-05-04 20:31 -22.90495 -43.16434 24 ft 11 kts 88°
2026-05-04 20:31 -22.90478 -43.16348 21 ft 6 kts 48°
2026-05-04 20:32 -22.90470 -43.16322 21 ft 3 kts 146°
2026-05-04 20:32 -22.90475 -43.16321 21 ft 0 kts 175°
2026-05-04 20:33 -22.90542 -43.16316 21 ft 39 kts 176°
2026-05-04 20:33 -22.91066 -43.16282 21 ft 108 kts 176°
2026-05-04 20:33 -22.91953 -43.16219 52 ft 141 kts 173°
2026-05-04 20:33 -22.92917 -43.16024 412 ft 136 kts 152°
2026-05-04 20:34 -22.93719 -43.15459 658 ft 140 kts 133°
2026-05-04 20:34 -22.94308 -43.14637 970 ft 140 kts 116°
2026-05-04 20:34 -22.94797 -43.13710 1273 ft 144 kts 124°
2026-05-04 20:34 -22.95571 -43.12932 1484 ft 160 kts 135°
2026-05-04 20:35 -22.96462 -43.12115 1655 ft 178 kts 134°
2026-05-04 20:35 -22.97475 -43.11176 1828 ft 199 kts 134°
2026-05-04 20:35 -22.98571 -43.10154 2054 ft 218 kts 135°
2026-05-04 20:35 -22.99751 -43.09002 2353 ft 233 kts 123°
2026-05-04 20:36 -23.00430 -43.07449 2905 ft 232 kts 108°
2026-05-04 20:36 -23.01051 -43.05803 3338 ft 245 kts 111°
2026-05-04 20:36 -23.01783 -43.04041 3624 ft 264 kts 113°
2026-05-04 20:36 -23.02587 -43.02202 4106 ft 275 kts 114°
2026-05-04 20:37 -23.03431 -43.00312 4740 ft 280 kts 115°
2026-05-04 20:37 -23.04289 -42.98415 5417 ft 283 kts 116°
2026-05-04 20:37 -23.05161 -42.96495 6066 ft 287 kts 116°
2026-05-04 20:37 -23.06041 -42.94561 6729 ft 291 kts 116°
2026-05-04 20:38 -23.06946 -42.92575 7447 ft 292 kts 117°
2026-05-04 20:38 -23.07833 -42.90626 8159 ft 293 kts 117°
2026-05-04 20:38 -23.08738 -42.88640 8841 ft 295 kts 117°
2026-05-04 20:38 -23.09647 -42.86642 9466 ft 298 kts 117°
2026-05-04 20:39 -23.10566 -42.84622 10086 ft 300 kts 117°
2026-05-04 20:39 -23.11493 -42.82585 10654 ft 304 kts 117°
2026-05-04 20:39 -23.12442 -42.80497 11124 ft 312 kts 117°
2026-05-04 20:39 -23.13411 -42.78366 11560 ft 320 kts 117°
2026-05-04 20:40 -23.14411 -42.76164 12002 ft 328 kts 117°
2026-05-04 20:40 -23.15427 -42.73925 12438 ft 336 kts 117°
2026-05-04 20:40 -23.16477 -42.71612 12945 ft 341 kts 117°
2026-05-04 20:40 -23.17525 -42.69301 13483 ft 344 kts 117°
2026-05-04 20:41 -23.18580 -42.66974 14019 ft 347 kts 117°
2026-05-04 20:41 -23.19649 -42.64615 14523 ft 351 kts 118°
2026-05-04 20:41 -23.20734 -42.62221 15020 ft 355 kts 117°
2026-05-04 20:41 -23.21828 -42.59802 15502 ft 359 kts 118°
2026-05-04 20:42 -23.22931 -42.57367 15989 ft 363 kts 118°
2026-05-04 20:42 -23.24048 -42.54895 16477 ft 366 kts 118°
2026-05-04 20:42 -23.25178 -42.52396 16947 ft 370 kts 118°
2026-05-04 20:42 -23.26321 -42.49865 17394 ft 374 kts 118°
2026-05-04 20:43 -23.27473 -42.47314 17873 ft 377 kts 118°
2026-05-04 20:43 -23.28637 -42.44735 18366 ft 380 kts 118°
2026-05-04 20:43 -23.29788 -42.42183 18855 ft 382 kts 118°
2026-05-04 20:43 -23.30966 -42.39569 19342 ft 385 kts 118°
2026-05-04 20:44 -23.32151 -42.36940 19811 ft 387 kts 118°
2026-05-04 20:44 -23.33337 -42.34306 20268 ft 390 kts 118°
2026-05-04 20:44 -23.34523 -42.31669 20719 ft 393 kts 118°
2026-05-04 20:44 -23.35724 -42.29000 21146 ft 396 kts 118°
2026-05-04 20:45 -23.36946 -42.26282 21578 ft 398 kts 118°
2026-05-04 20:45 -23.38162 -42.23575 22013 ft 401 kts 118°
2026-05-04 20:45 -23.39377 -42.20870 22411 ft 404 kts 118°
2026-05-04 20:45 -23.40617 -42.18107 22818 ft 406 kts 118°
2026-05-04 20:46 -23.41859 -42.15339 23237 ft 409 kts 118°
2026-05-04 20:46 -23.43101 -42.12567 23638 ft 411 kts 118°
2026-05-04 20:46 -23.44363 -42.09751 24041 ft 414 kts 118°
2026-05-04 20:46 -23.45624 -42.06934 24441 ft 416 kts 118°
2026-05-04 20:47 -23.46896 -42.04092 24832 ft 418 kts 119°
2026-05-04 20:47 -23.48194 -42.01189 25230 ft 420 kts 118°
2026-05-04 20:47 -23.49476 -41.98320 25606 ft 423 kts 118°
2026-05-04 20:47 -23.50755 -41.95457 25976 ft 425 kts 119°
2026-05-04 20:48 -23.52062 -41.92529 26333 ft 428 kts 119°
2026-05-04 20:48 -23.53371 -41.89594 26666 ft 431 kts 119°
2026-05-04 20:48 -23.54687 -41.86642 26997 ft 434 kts 119°
2026-05-04 20:48 -23.56012 -41.83668 27337 ft 436 kts 119°
2026-05-04 20:49 -23.57337 -41.80693 27672 ft 439 kts 119°
2026-05-04 20:49 -23.58687 -41.77658 28019 ft 441 kts 119°
2026-05-04 20:49 -23.60026 -41.74648 28356 ft 443 kts 119°
2026-05-04 20:49 -23.61384 -41.71593 28690 ft 445 kts 119°
2026-05-04 20:50 -23.62733 -41.68557 29000 ft 448 kts 119°
2026-05-04 20:50 -23.64111 -41.65452 29315 ft 450 kts 119°
2026-05-04 20:50 -23.65474 -41.62379 29611 ft 452 kts 119°
2026-05-04 20:50 -23.66850 -41.59274 29904 ft 455 kts 119°
2026-05-04 20:51 -23.68241 -41.56133 30204 ft 457 kts 119°
2026-05-04 20:51 -23.69631 -41.52995 30473 ft 460 kts 119°
2026-05-04 20:51 -23.71022 -41.49850 30744 ft 462 kts 119°
2026-05-04 20:51 -23.72428 -41.46669 31015 ft 465 kts 119°
2026-05-04 20:52 -23.73823 -41.43511 31267 ft 468 kts 119°
2026-05-04 20:52 -23.75242 -41.40298 31526 ft 470 kts 119°
2026-05-04 20:52 -23.76663 -41.37077 31791 ft 473 kts 119°
2026-05-04 20:52 -23.78084 -41.33854 32094 ft 473 kts 119°
2026-05-04 20:53 -23.79510 -41.30615 32401 ft 474 kts 119°
2026-05-04 20:53 -23.80937 -41.27375 32719 ft 474 kts 119°
2026-05-04 20:53 -23.82364 -41.24131 33034 ft 474 kts 119°
2026-05-04 20:53 -23.83771 -41.20930 33332 ft 473 kts 119°
2026-05-04 20:54 -23.85200 -41.17678 33623 ft 474 kts 119°
2026-05-04 20:54 -23.86621 -41.14441 33931 ft 474 kts 119°
2026-05-04 20:54 -23.88036 -41.11217 34241 ft 473 kts 119°
2026-05-04 20:54 -23.89459 -41.07971 34552 ft 473 kts 119°
2026-05-04 20:55 -23.90875 -41.04739 34844 ft 473 kts 119°
2026-05-04 20:55 -23.92285 -41.01518 35147 ft 473 kts 119°
2026-05-04 20:55 -23.93701 -40.98282 35442 ft 472 kts 119°
2026-05-04 20:55 -23.95115 -40.95049 35704 ft 472 kts 119°
2026-05-04 20:56 -23.96536 -40.91796 35980 ft 472 kts 119°
2026-05-04 20:56 -23.97936 -40.88590 36231 ft 472 kts 119°
2026-05-04 20:56 -23.99348 -40.85354 36448 ft 473 kts 119°
2026-05-04 20:56 -24.00772 -40.82087 36674 ft 474 kts 119°
2026-05-04 20:57 -24.02182 -40.78851 36893 ft 474 kts 119°
2026-05-04 20:57 -24.03599 -40.75596 37122 ft 474 kts 119°
2026-05-04 20:57 -24.05016 -40.72340 37349 ft 474 kts 119°
2026-05-04 20:57 -24.06432 -40.69083 37586 ft 474 kts 119°
2026-05-04 20:58 -24.07833 -40.65857 37776 ft 475 kts 119°
2026-05-04 20:58 -24.09266 -40.62558 37969 ft 475 kts 119°
2026-05-04 20:58 -24.10683 -40.59291 38165 ft 476 kts 119°
2026-05-04 20:58 -24.12096 -40.56033 38364 ft 476 kts 119°
2026-05-04 20:59 -24.13501 -40.52788 38536 ft 476 kts 119°
2026-05-04 20:59 -24.14916 -40.49522 38716 ft 477 kts 119°
2026-05-04 20:59 -24.16344 -40.46219 38876 ft 478 kts 119°
2026-05-04 20:59 -24.17758 -40.42949 39055 ft 478 kts 119°
2026-05-04 21:00 -24.19165 -40.39690 39218 ft 478 kts 119°
2026-05-04 21:00 -24.20594 -40.36380 39411 ft 478 kts 119°
2026-05-04 21:00 -24.22009 -40.33101 39604 ft 478 kts 119°
2026-05-04 21:00 -24.23420 -40.29827 39766 ft 478 kts 118°
2026-05-04 21:01 -24.24844 -40.26521 39923 ft 477 kts 119°
2026-05-04 21:01 -24.26260 -40.23232 40076 ft 477 kts 119°
2026-05-04 21:01 -24.27661 -40.19975 40232 ft 477 kts 118°
2026-05-04 21:01 -24.29073 -40.16690 40351 ft 477 kts 119°
2026-05-04 21:02 -24.30485 -40.13404 40490 ft 477 kts 118°
2026-05-04 21:02 -24.31891 -40.10126 40605 ft 477 kts 118°
2026-05-04 21:02 -24.33310 -40.06818 40725 ft 478 kts 119°
2026-05-04 21:02 -24.34714 -40.03542 40841 ft 478 kts 118°
2026-05-04 21:03 -24.36122 -40.00254 40964 ft 478 kts 119°
2026-05-04 21:03 -24.37529 -39.96966 41053 ft 478 kts 119°
2026-05-04 21:03 -24.40347 -39.90375 41170 ft 481 kts 119°
2026-05-04 21:04 -24.43202 -39.83687 41191 ft 486 kts 118°
2026-05-04 21:04 -24.46032 -39.77047 41208 ft 483 kts 119°
2026-05-04 21:05 -24.48896 -39.70319 41209 ft 488 kts 118°
2026-05-04 21:05 -24.51758 -39.63582 41207 ft 494 kts 118°
2026-05-04 21:06 -24.54669 -39.56723 41207 ft 499 kts 118°
2026-05-04 21:06 -24.57615 -39.49768 41213 ft 503 kts 118°
2026-05-04 21:07 -24.60550 -39.42831 41209 ft 507 kts 118°
2026-05-04 21:07 -24.63510 -39.35821 41209 ft 506 kts 118°
2026-05-04 21:08 -24.66463 -39.28819 41191 ft 507 kts 117°
2026-05-04 21:08 -24.69430 -39.21770 41197 ft 508 kts 118°
2026-05-04 21:09 -24.72370 -39.14775 41189 ft 506 kts 117°
2026-05-04 21:09 -24.75320 -39.07749 41198 ft 507 kts 118°
2026-05-04 21:10 -24.78261 -39.00729 41197 ft 507 kts 118°
2026-05-04 21:10 -24.81193 -38.93721 41198 ft 506 kts 117°
2026-05-04 21:11 -24.84138 -38.86671 41195 ft 506 kts 117°
2026-05-04 21:11 -24.87072 -38.79636 41196 ft 508 kts 117°
2026-05-04 21:12 -24.90010 -38.72579 41196 ft 508 kts 117°
2026-05-04 21:12 -24.92933 -38.65547 41196 ft 506 kts 117°
2026-05-04 21:13 -24.95847 -38.58525 41200 ft 507 kts 117°
2026-05-04 21:13 -24.98770 -38.51470 41195 ft 506 kts 117°
2026-05-04 21:14 -25.01696 -38.44399 41201 ft 507 kts 117°
2026-05-04 21:14 -25.04596 -38.37376 41202 ft 508 kts 117°
2026-05-04 21:15 -25.07520 -38.30286 41190 ft 509 kts 117°
2026-05-04 21:15 -25.10435 -38.23205 41194 ft 509 kts 117°
2026-05-04 21:16 -25.13364 -38.16079 41205 ft 508 kts 117°
2026-05-04 21:16 -25.16266 -38.09007 41212 ft 510 kts 117°
2026-05-04 21:17 -25.19170 -38.01920 41219 ft 509 kts 117°
2026-05-04 21:17 -25.22076 -37.94814 41218 ft 508 kts 117°
2026-05-04 21:18 -25.24982 -37.87697 41222 ft 509 kts 117°
2026-05-04 21:18 -25.27883 -37.80580 41224 ft 510 kts 117°
2026-05-04 21:19 -25.30779 -37.73464 41227 ft 510 kts 117°
2026-05-04 21:19 -25.33669 -37.66351 41229 ft 511 kts 116°
2026-05-04 21:20 -25.36564 -37.59213 41228 ft 509 kts 117°
2026-05-04 21:20 -25.39457 -37.52068 41227 ft 509 kts 117°
2026-05-04 21:21 -25.42334 -37.44952 41229 ft 511 kts 116°
2026-05-04 21:21 -25.45231 -37.37776 41230 ft 510 kts 116°
2026-05-04 21:22 -25.48120 -37.30605 41211 ft 511 kts 116°
2026-05-04 21:22 -25.50992 -37.23464 41218 ft 511 kts 116°
2026-05-04 21:23 -25.53880 -37.16272 41222 ft 512 kts 116°
2026-05-04 21:23 -25.56757 -37.09096 41226 ft 512 kts 116°
2026-05-04 21:24 -25.59630 -37.01919 41224 ft 512 kts 116°
2026-05-04 21:24 -25.62516 -36.94693 41218 ft 512 kts 116°
2026-05-04 21:25 -25.65385 -36.87500 41212 ft 512 kts 116°
2026-05-04 21:25 -25.68253 -36.80298 41214 ft 514 kts 116°
2026-05-04 21:26 -25.71111 -36.73106 41222 ft 513 kts 116°
2026-05-04 21:26 -25.73993 -36.65842 41230 ft 513 kts 116°
2026-05-04 21:27 -25.76849 -36.58633 41230 ft 513 kts 116°
2026-05-04 21:27 -25.79713 -36.51390 41229 ft 514 kts 116°
2026-05-04 21:28 -25.82570 -36.44153 41236 ft 515 kts 116°
2026-05-04 21:28 -25.85440 -36.36869 41231 ft 514 kts 116°
2026-05-04 21:29 -25.88285 -36.29636 41221 ft 513 kts 115°
2026-05-04 21:29 -25.91142 -36.22361 41226 ft 515 kts 115°
2026-05-04 21:30 -25.93986 -36.15104 41226 ft 515 kts 115°
2026-05-04 21:30 -25.96827 -36.07845 41231 ft 515 kts 115°
2026-05-04 21:31 -26.01112 -35.96869 41214 ft 516 kts 115°
2026-05-04 21:32 -26.03954 -35.89573 41223 ft 517 kts 115°
2026-05-04 21:32 -26.06804 -35.82245 41235 ft 517 kts 115°
2026-05-04 21:33 -26.09638 -35.74942 41235 ft 515 kts 115°
2026-05-04 21:33 -26.12473 -35.67627 41233 ft 516 kts 115°
2026-05-04 21:34 -26.15297 -35.60325 41234 ft 514 kts 115°
2026-05-04 21:34 -26.18130 -35.52990 41233 ft 517 kts 115°
2026-05-04 21:35 -26.20951 -35.45667 41243 ft 516 kts 115°
2026-05-04 21:35 -26.23763 -35.38361 41250 ft 516 kts 115°
2026-05-04 21:36 -26.26579 -35.31027 41236 ft 517 kts 114°
2026-05-04 21:36 -26.29389 -35.23696 41241 ft 517 kts 114°
2026-05-04 21:37 -26.32214 -35.16314 41246 ft 517 kts 114°
2026-05-04 21:37 -26.35008 -35.08997 41251 ft 517 kts 114°
2026-05-04 21:38 -26.37811 -35.01648 41251 ft 517 kts 114°
2026-05-04 21:38 -26.40630 -34.94239 41259 ft 518 kts 114°
2026-05-04 21:39 -26.43417 -34.86902 41257 ft 518 kts 114°
2026-05-04 21:39 -26.46223 -34.79501 41258 ft 517 kts 114°
2026-05-04 21:40 -26.49013 -34.72129 41259 ft 518 kts 114°
2026-05-04 21:40 -26.51794 -34.64767 41261 ft 518 kts 114°
2026-05-04 21:41 -26.54585 -34.57365 41259 ft 519 kts 114°
2026-05-04 21:41 -26.57385 -34.49926 41255 ft 517 kts 114°
2026-05-04 21:42 -26.60155 -34.42552 41261 ft 518 kts 114°
2026-05-04 21:42 -26.62940 -34.35126 41259 ft 518 kts 114°
2026-05-04 21:43 -26.65703 -34.27742 41255 ft 519 kts 113°
2026-05-04 21:43 -26.68485 -34.20293 41248 ft 519 kts 113°
2026-05-04 21:44 -26.71251 -34.12878 41239 ft 519 kts 113°
2026-05-04 21:44 -26.74019 -34.05438 41256 ft 518 kts 113°
2026-05-04 21:45 -26.76783 -33.97997 41238 ft 519 kts 113°
2026-05-04 21:45 -26.79530 -33.90588 41236 ft 519 kts 113°
2026-05-04 21:46 -26.82282 -33.83150 41256 ft 518 kts 113°
2026-05-04 21:46 -26.85038 -33.75689 41265 ft 519 kts 113°
2026-05-04 21:47 -26.87785 -33.68238 41268 ft 519 kts 113°
2026-05-04 21:47 -26.90527 -33.60785 41257 ft 519 kts 113°
2026-05-04 21:48 -26.93272 -33.53313 41260 ft 520 kts 112°
2026-05-04 21:48 -26.96010 -33.45842 41270 ft 520 kts 112°
2026-05-04 21:49 -26.98744 -33.38368 41272 ft 520 kts 112°
2026-05-04 21:49 -27.01473 -33.30893 41257 ft 520 kts 112°
2026-05-04 21:50 -27.04199 -33.23411 41253 ft 521 kts 112°
2026-05-04 21:50 -27.06920 -33.15933 41241 ft 520 kts 112°
2026-05-04 21:51 -27.09642 -33.08434 41246 ft 521 kts 112°
2026-05-04 21:51 -27.12371 -33.00902 41241 ft 521 kts 112°
2026-05-04 21:52 -27.15092 -32.93375 41231 ft 520 kts 112°
2026-05-04 21:52 -27.17794 -32.85888 41231 ft 522 kts 112°
2026-05-04 21:53 -27.20506 -32.78357 41231 ft 520 kts 112°
2026-05-04 21:53 -27.23213 -32.70826 41234 ft 520 kts 112°
2026-05-04 21:54 -27.25908 -32.63315 41238 ft 521 kts 112°
2026-05-04 21:54 -27.28605 -32.55784 41240 ft 521 kts 112°
2026-05-04 21:55 -27.31296 -32.48253 41243 ft 521 kts 111°
2026-05-04 21:55 -27.34005 -32.40655 41248 ft 523 kts 112°
2026-05-04 21:56 -27.36696 -32.33096 41240 ft 522 kts 111°
2026-05-04 21:56 -27.39370 -32.25566 41242 ft 523 kts 111°
2026-05-04 21:57 -27.42060 -32.17976 41246 ft 522 kts 111°
2026-05-04 21:57 -27.44758 -32.10354 41253 ft 523 kts 111°
2026-05-04 21:58 -27.47435 -32.02768 41255 ft 524 kts 111°
2026-05-04 21:58 -27.50103 -31.95198 41256 ft 524 kts 111°
2026-05-04 21:59 -27.52770 -31.87612 41260 ft 524 kts 111°
2026-05-04 21:59 -27.55458 -31.79951 41261 ft 525 kts 111°
2026-05-04 22:00 -27.58129 -31.72326 41262 ft 524 kts 111°
2026-05-04 22:00 -27.60785 -31.64728 41264 ft 524 kts 111°
2026-05-04 22:01 -27.63458 -31.57063 41265 ft 525 kts 111°
2026-05-04 22:01 -27.66114 -31.49431 41267 ft 526 kts 111°
2026-05-04 22:02 -27.68773 -31.41778 41275 ft 525 kts 111°
2026-05-04 22:02 -27.71437 -31.34092 41265 ft 527 kts 110°
2026-05-04 22:03 -27.74082 -31.26443 41258 ft 525 kts 110°
2026-05-04 22:03 -27.76730 -31.18772 41257 ft 525 kts 110°
2026-05-04 22:04 -27.79359 -31.11141 41257 ft 526 kts 110°
2026-05-04 22:04 -27.82018 -31.03403 41262 ft 528 kts 110°
2026-05-04 22:05 -27.84662 -30.95695 41262 ft 527 kts 110°
2026-05-04 22:05 -27.87283 -30.88040 41261 ft 526 kts 110°
2026-05-04 22:06 -27.89923 -30.80308 41265 ft 528 kts 110°
2026-05-04 22:06 -27.92553 -30.72593 41264 ft 528 kts 110°
2026-05-04 22:07 -27.95186 -30.64853 41266 ft 529 kts 110°
2026-05-04 22:07 -27.97815 -30.57105 41267 ft 528 kts 110°
2026-05-04 22:08 -28.00417 -30.49422 41269 ft 528 kts 110°
2026-05-04 22:08 -28.03038 -30.41667 41268 ft 529 kts 110°
2026-05-04 22:09 -28.05650 -30.33923 41270 ft 527 kts 109°
2026-05-04 22:09 -28.08267 -30.26146 41260 ft 528 kts 109°
2026-05-04 22:10 -28.10879 -30.18369 41251 ft 529 kts 109°
2026-05-04 22:10 -28.13469 -30.10636 41250 ft 529 kts 109°
2026-05-04 22:11 -28.16075 -30.02842 41253 ft 530 kts 109°
2026-05-04 22:11 -28.18675 -29.95046 41257 ft 530 kts 109°
2026-05-04 22:12 -28.21268 -29.87256 41257 ft 530 kts 110°
2026-05-04 22:12 -28.23861 -29.79451 41261 ft 529 kts 110°
2026-05-04 22:13 -28.26433 -29.71689 41256 ft 528 kts 109°
2026-05-04 22:13 -28.29012 -29.63891 41259 ft 529 kts 110°
2026-05-04 22:14 -28.31579 -29.56109 41260 ft 530 kts 110°
2026-05-04 22:14 -28.34146 -29.48314 41257 ft 529 kts 109°
2026-05-04 22:15 -28.36710 -29.40508 41265 ft 530 kts 109°
2026-05-04 22:15 -28.39285 -29.32653 41259 ft 530 kts 109°
2026-05-04 22:16 -28.41842 -29.24835 41253 ft 530 kts 109°
2026-05-04 22:16 -28.44386 -29.17039 41254 ft 530 kts 109°
2026-05-04 22:17 -28.46938 -29.09201 41257 ft 531 kts 109°
2026-05-04 22:17 -28.49484 -29.01363 41254 ft 530 kts 109°
2026-05-04 22:18 -28.52026 -28.93518 41253 ft 531 kts 109°
2026-05-04 22:18 -28.54567 -28.85662 41263 ft 531 kts 109°
2026-05-04 22:19 -28.57100 -28.77813 41261 ft 531 kts 109°
2026-05-04 22:19 -28.59633 -28.69947 41264 ft 531 kts 109°
2026-05-04 22:20 -28.62166 -28.62058 41265 ft 532 kts 109°
2026-05-04 22:20 -28.64694 -28.54170 41264 ft 531 kts 109°
2026-05-04 22:21 -28.67222 -28.46266 41268 ft 532 kts 109°
2026-05-04 22:21 -28.69745 -28.38355 41269 ft 533 kts 109°
2026-05-04 22:22 -28.72256 -28.30464 41250 ft 532 kts 109°
2026-05-04 22:22 -28.74764 -28.22568 41253 ft 532 kts 108°
2026-05-04 22:23 -28.77262 -28.14681 41258 ft 532 kts 109°
2026-05-04 22:23 -28.79762 -28.06773 41257 ft 532 kts 109°
2026-05-04 22:24 -28.82256 -27.98866 41261 ft 533 kts 109°
2026-05-04 22:24 -28.84755 -27.90922 41259 ft 532 kts 109°
2026-05-04 22:25 -28.87241 -27.82999 41263 ft 534 kts 109°
2026-05-04 22:25 -28.89735 -27.75035 41264 ft 533 kts 109°
2026-05-04 22:26 -28.92215 -27.67095 41265 ft 533 kts 108°
2026-05-04 22:26 -28.94704 -27.59108 41269 ft 534 kts 109°
2026-05-04 22:27 -28.97173 -27.51165 41270 ft 533 kts 109°
2026-05-04 22:27 -28.99654 -27.43169 41269 ft 535 kts 108°
2026-05-04 22:28 -29.02110 -27.35233 41271 ft 535 kts 108°
2026-05-04 22:28 -29.04587 -27.27207 41254 ft 534 kts 108°
2026-05-04 22:29 -29.07045 -27.19224 41258 ft 536 kts 108°
2026-05-04 22:29 -29.09502 -27.11229 41260 ft 536 kts 108°
2026-05-04 22:30 -29.11951 -27.03237 41246 ft 535 kts 108°
2026-05-04 22:30 -29.14401 -26.95224 41240 ft 534 kts 108°
2026-05-04 22:31 -29.16853 -26.87186 41235 ft 534 kts 108°
2026-05-04 22:31 -29.19271 -26.79236 41240 ft 534 kts 108°
2026-05-04 22:32 -29.21716 -26.71183 41242 ft 534 kts 108°
2026-05-04 22:32 -29.24129 -26.63211 41239 ft 534 kts 108°
2026-05-04 22:33 -29.26558 -26.55169 41245 ft 534 kts 108°
2026-05-04 22:33 -29.28974 -26.47152 41252 ft 535 kts 108°
2026-05-04 22:34 -29.31375 -26.39162 41255 ft 535 kts 108°
2026-05-04 22:34 -29.33785 -26.31123 41230 ft 535 kts 108°
2026-05-04 22:35 -29.36189 -26.23087 41238 ft 535 kts 108°
2026-05-04 22:35 -29.38593 -26.15029 41241 ft 534 kts 107°
2026-05-04 22:36 -29.40982 -26.07003 41246 ft 535 kts 108°
2026-05-04 22:36 -29.43374 -25.98944 41249 ft 535 kts 107°
2026-05-04 22:37 -29.45749 -25.90925 41256 ft 534 kts 108°
2026-05-04 22:37 -29.48126 -25.82876 41266 ft 534 kts 107°
2026-05-04 22:38 -29.50498 -25.74827 41266 ft 535 kts 108°
2026-05-04 22:38 -29.52870 -25.66754 41265 ft 534 kts 108°
2026-05-04 22:39 -29.55242 -25.58666 41266 ft 534 kts 108°
2026-05-04 22:39 -29.57596 -25.50615 41261 ft 534 kts 108°
2026-05-04 22:40 -29.59950 -25.42544 41264 ft 535 kts 108°
2026-05-04 22:40 -29.62296 -25.34483 41268 ft 533 kts 107°
2026-05-04 22:41 -29.64627 -25.26447 41254 ft 534 kts 107°
2026-05-04 22:41 -29.66969 -25.18360 41252 ft 534 kts 107°
2026-05-04 22:42 -29.69311 -25.10249 41255 ft 535 kts 107°
2026-05-04 22:42 -29.71634 -25.02180 41257 ft 534 kts 107°
2026-05-04 22:43 -29.73972 -24.94040 41261 ft 535 kts 107°
2026-05-04 22:43 -29.76290 -24.85950 41263 ft 535 kts 107°
2026-05-04 22:44 -29.78607 -24.77839 41261 ft 536 kts 107°
2026-05-04 22:44 -29.80926 -24.69708 41262 ft 535 kts 107°
2026-05-04 22:45 -29.83233 -24.61587 41264 ft 536 kts 107°
2026-05-04 22:45 -29.86687 -24.49399 41266 ft 536 kts 107°
2026-05-04 22:46 -29.88979 -24.41283 41269 ft 536 kts 107°
2026-05-04 22:46 -29.91279 -24.33118 41256 ft 536 kts 107°
2026-05-04 22:47 -29.93564 -24.24983 41254 ft 536 kts 107°
2026-05-04 22:47 -29.95838 -24.16868 41255 ft 535 kts 107°
2026-05-04 22:48 -29.98123 -24.08687 41254 ft 536 kts 106°
2026-05-04 22:48 -30.00393 -24.00543 41264 ft 536 kts 107°
2026-05-04 22:49 -30.02662 -23.92383 41261 ft 534 kts 107°
2026-05-04 22:49 -30.04918 -23.84243 41266 ft 535 kts 106°
2026-05-04 22:50 -30.07169 -23.76102 41265 ft 535 kts 106°
2026-05-04 22:50 -30.09417 -23.67947 41270 ft 536 kts 107°
2026-05-04 22:51 -30.11677 -23.59730 41260 ft 535 kts 106°
2026-05-04 22:51 -30.13913 -23.51575 41264 ft 536 kts 106°
2026-05-04 22:52 -30.16151 -23.43391 41258 ft 536 kts 106°
2026-05-04 22:52 -30.18386 -23.35198 41263 ft 536 kts 106°
2026-05-04 22:53 -30.20619 -23.26987 41249 ft 536 kts 105°
2026-05-04 22:53 -30.22832 -23.18830 41247 ft 537 kts 105°
2026-05-04 22:54 -30.25057 -23.10607 41246 ft 536 kts 106°
2026-05-04 22:54 -30.27274 -23.02386 41251 ft 536 kts 106°
2026-05-04 22:55 -30.29485 -22.94164 41249 ft 537 kts 106°
2026-05-04 22:55 -30.31689 -22.85949 41250 ft 537 kts 106°
2026-05-04 22:56 -30.33890 -22.77722 41247 ft 537 kts 106°
2026-05-04 22:56 -30.36085 -22.69494 41248 ft 538 kts 106°
2026-05-04 22:57 -30.38276 -22.61261 41244 ft 537 kts 105°
2026-05-04 22:57 -30.40460 -22.53024 41243 ft 538 kts 106°
2026-05-04 22:58 -30.42647 -22.44759 41245 ft 537 kts 106°
2026-05-04 22:58 -30.44822 -22.36516 41247 ft 537 kts 106°
2026-05-04 22:59 -30.46991 -22.28269 41234 ft 538 kts 105°
2026-05-04 22:59 -30.49161 -22.19993 41233 ft 539 kts 105°
2026-05-04 23:00 -30.51323 -22.11727 41233 ft 538 kts 105°
2026-05-04 23:00 -30.53493 -22.03405 41237 ft 538 kts 105°
2026-05-04 23:01 -30.55638 -21.95154 41242 ft 538 kts 105°
2026-05-04 23:01 -30.57784 -21.86884 41250 ft 537 kts 105°
2026-05-04 23:02 -30.59935 -21.78559 41257 ft 538 kts 105°
2026-05-04 23:02 -30.62063 -21.70309 41259 ft 538 kts 105°
2026-05-04 23:03 -30.64205 -21.61974 41261 ft 537 kts 105°
2026-05-04 23:03 -30.66325 -21.53706 41263 ft 537 kts 105°
2026-05-04 23:04 -30.68438 -21.45434 41261 ft 538 kts 105°
2026-05-04 23:04 -30.70565 -21.37091 41265 ft 537 kts 105°
2026-05-04 23:05 -30.72661 -21.28836 41251 ft 538 kts 105°
2026-05-04 23:05 -30.74769 -21.20518 41250 ft 538 kts 105°
2026-05-04 23:06 -30.76877 -21.12173 41249 ft 538 kts 105°
2026-05-04 23:06 -30.78965 -21.03879 41253 ft 538 kts 105°
2026-05-04 23:07 -30.81064 -20.95524 41255 ft 539 kts 105°
2026-05-04 23:07 -30.83153 -20.87174 41256 ft 539 kts 105°
2026-05-04 23:08 -30.85237 -20.78826 41256 ft 539 kts 105°
2026-05-04 23:08 -30.87317 -20.70469 41262 ft 538 kts 104°
2026-05-04 23:09 -30.89384 -20.62133 41261 ft 538 kts 105°
2026-05-04 23:09 -30.91442 -20.53812 41263 ft 539 kts 105°
2026-05-04 23:10 -30.93506 -20.45444 41266 ft 539 kts 105°
2026-05-04 23:10 -30.95562 -20.37078 41266 ft 539 kts 105°
2026-05-04 23:11 -30.97624 -20.28670 41254 ft 539 kts 104°
2026-05-04 23:11 -30.99659 -20.20336 41255 ft 539 kts 104°
2026-05-04 23:12 -31.01706 -20.11935 41258 ft 539 kts 104°
2026-05-04 23:12 -31.03735 -20.03580 41265 ft 538 kts 104°
2026-05-04 23:13 -31.05770 -19.95175 41263 ft 539 kts 104°
2026-05-04 23:13 -31.07796 -19.86775 41262 ft 539 kts 104°
2026-05-04 23:14 -31.09813 -19.78394 41267 ft 539 kts 104°
2026-05-04 23:14 -31.11822 -19.70020 41262 ft 539 kts 104°
2026-05-04 23:15 -31.13834 -19.61603 41260 ft 539 kts 104°
2026-05-04 23:15 -31.15831 -19.53225 41261 ft 539 kts 104°
2026-05-04 23:16 -31.17828 -19.44819 41264 ft 538 kts 104°
2026-05-04 23:16 -31.19813 -19.36439 41269 ft 539 kts 104°
2026-05-04 23:17 -31.21796 -19.28034 41251 ft 538 kts 103°
2026-05-04 23:17 -31.23779 -19.19611 41247 ft 538 kts 104°
2026-05-04 23:18 -31.25745 -19.11230 41251 ft 538 kts 103°
2026-05-04 23:18 -31.27710 -19.02825 41253 ft 538 kts 104°
2026-05-04 23:19 -31.29669 -18.94422 41255 ft 539 kts 103°
2026-05-04 23:19 -31.31632 -18.85973 41257 ft 538 kts 104°
2026-05-04 23:20 -31.33571 -18.77598 41254 ft 537 kts 104°
2026-05-04 23:20 -31.35523 -18.69150 41255 ft 538 kts 104°
2026-05-04 23:21 -31.37455 -18.60749 41254 ft 538 kts 104°
2026-05-04 23:21 -31.39392 -18.52304 41254 ft 537 kts 104°
2026-05-04 23:22 -31.41320 -18.43875 41253 ft 538 kts 103°
2026-05-04 23:22 -31.43234 -18.35469 41253 ft 538 kts 104°
2026-05-04 23:23 -31.45154 -18.27016 41235 ft 538 kts 103°
2026-05-04 23:23 -31.47058 -18.18606 41231 ft 538 kts 103°
2026-05-04 23:24 -31.48970 -18.10133 41234 ft 537 kts 103°
2026-05-04 23:24 -31.50855 -18.01748 41235 ft 537 kts 103°
2026-05-04 23:25 -31.52754 -17.93277 41235 ft 537 kts 103°
2026-05-04 23:25 -31.54633 -17.84865 41237 ft 537 kts 103°
2026-05-04 23:26 -31.56519 -17.76391 41238 ft 537 kts 103°
2026-05-04 23:26 -31.58397 -17.67927 41240 ft 537 kts 103°
2026-05-04 23:27 -31.60265 -17.59480 41238 ft 537 kts 103°
2026-05-04 23:27 -31.62122 -17.51054 41246 ft 537 kts 103°
2026-05-04 23:28 -31.63977 -17.42608 41249 ft 537 kts 103°
2026-05-04 23:28 -31.65823 -17.34176 41247 ft 536 kts 102°
2026-05-04 23:29 -31.67673 -17.25695 41234 ft 536 kts 102°
2026-05-04 23:29 -31.69503 -17.17279 41233 ft 537 kts 102°
2026-05-04 23:30 -31.71346 -17.08771 41235 ft 537 kts 102°
2026-05-04 23:30 -31.73167 -17.00337 41241 ft 537 kts 102°
2026-05-04 23:31 -31.74989 -16.91870 41240 ft 537 kts 102°
2026-05-04 23:31 -31.76814 -16.83358 41239 ft 537 kts 102°
2026-05-04 23:32 -31.78624 -16.74888 41244 ft 537 kts 102°
2026-05-04 23:32 -31.80432 -16.66392 41245 ft 537 kts 102°
2026-05-04 23:33 -31.82233 -16.57906 41246 ft 537 kts 102°
2026-05-04 23:33 -31.84022 -16.49449 41249 ft 537 kts 102°
2026-05-04 23:34 -31.85816 -16.40932 41257 ft 537 kts 102°
2026-05-04 23:34 -31.87596 -16.32455 41241 ft 537 kts 102°
2026-05-04 23:35 -31.89379 -16.23929 41237 ft 536 kts 102°
2026-05-04 23:35 -31.91145 -16.15458 41243 ft 537 kts 102°
2026-05-04 23:36 -31.92911 -16.06959 41238 ft 536 kts 102°
2026-05-04 23:36 -31.94667 -15.98471 41243 ft 536 kts 102°
2026-05-04 23:37 -31.96428 -15.89933 41244 ft 536 kts 102°
2026-05-04 23:37 -31.98167 -15.81466 41250 ft 536 kts 102°
2026-05-04 23:38 -31.99911 -15.72948 41255 ft 535 kts 102°
2026-05-04 23:38 -32.01642 -15.64465 41258 ft 536 kts 102°
2026-05-04 23:39 -32.03376 -15.55934 41258 ft 535 kts 102°
2026-05-04 23:39 -32.05093 -15.47453 41259 ft 535 kts 102°
2026-05-04 23:40 -32.06813 -15.38926 41264 ft 535 kts 101°
2026-05-04 23:40 -32.08519 -15.30440 41252 ft 534 kts 101°
2026-05-04 23:41 -32.10226 -15.21916 41252 ft 535 kts 101°
2026-05-04 23:41 -32.11923 -15.13406 41248 ft 536 kts 101°
2026-05-04 23:42 -32.13618 -15.04886 41249 ft 535 kts 101°
2026-05-04 23:42 -32.15307 -14.96350 41249 ft 535 kts 101°
2026-05-04 23:43 -32.16991 -14.87811 41248 ft 537 kts 101°
2026-05-04 23:43 -32.18669 -14.79283 41249 ft 535 kts 101°
2026-05-04 23:44 -32.20340 -14.70746 41252 ft 535 kts 101°
2026-05-04 23:44 -32.21994 -14.62265 41250 ft 535 kts 101°
2026-05-04 23:45 -32.23651 -14.53740 41252 ft 535 kts 101°
2026-05-04 23:45 -32.25307 -14.45183 41249 ft 536 kts 101°
2026-05-04 23:46 -32.26956 -14.36637 41248 ft 535 kts 101°
2026-05-04 23:46 -32.28596 -14.28098 41232 ft 535 kts 100°
2026-05-04 23:47 -32.30242 -14.19494 41232 ft 536 kts 101°
2026-05-04 23:47 -32.31865 -14.10977 41236 ft 536 kts 100°
2026-05-04 23:48 -32.33488 -14.02428 41241 ft 535 kts 101°
2026-05-04 23:48 -32.35107 -13.93869 41239 ft 535 kts 101°
2026-05-04 23:49 -32.36718 -13.85315 41239 ft 534 kts 101°
2026-05-04 23:49 -32.38329 -13.76733 41235 ft 536 kts 100°
2026-05-04 23:50 -32.39935 -13.68134 41227 ft 536 kts 100°
2026-05-04 23:50 -32.41522 -13.59610 41228 ft 534 kts 100°
2026-05-04 23:51 -32.43112 -13.51040 41231 ft 534 kts 100°
2026-05-04 23:51 -32.44696 -13.42454 41231 ft 535 kts 100°
2026-05-04 23:52 -32.46270 -13.33902 41224 ft 535 kts 99°
2026-05-04 23:52 -32.47839 -13.25335 41213 ft 535 kts 99°
2026-05-04 23:53 -32.49401 -13.16771 41211 ft 535 kts 99°
2026-05-04 23:53 -32.50962 -13.08178 41216 ft 536 kts 99°
2026-05-04 23:54 -32.52518 -12.99579 41217 ft 535 kts 100°
2026-05-04 23:54 -32.54063 -12.91005 41221 ft 534 kts 100°
2026-05-04 23:55 -32.55613 -12.82373 41225 ft 535 kts 99°
2026-05-04 23:56 -32.57907 -12.69521 41232 ft 535 kts 100°
2026-05-04 23:56 -32.59429 -12.60950 41232 ft 533 kts 100°
2026-05-04 23:57 -32.60954 -12.52328 41233 ft 535 kts 100°
2026-05-04 23:57 -32.62461 -12.43772 41237 ft 535 kts 100°
2026-05-04 23:58 -32.63974 -12.35141 41237 ft 535 kts 100°
2026-05-04 23:58 -32.65475 -12.26547 41225 ft 535 kts 99°
2026-05-04 23:59 -32.66969 -12.17959 41223 ft 534 kts 99°
2026-05-04 23:59 -32.68462 -12.09337 41224 ft 534 kts 99°
2026-05-05 00:00 -32.69948 -12.00716 41220 ft 533 kts 99°
2026-05-05 00:00 -32.71419 -11.92153 41224 ft 534 kts 99°
2026-05-05 00:01 -32.72898 -11.83499 41226 ft 534 kts 99°
2026-05-05 00:01 -32.74365 -11.74885 41231 ft 534 kts 99°
2026-05-05 00:02 -32.75819 -11.66301 41227 ft 533 kts 99°
2026-05-05 00:02 -32.77267 -11.57716 41231 ft 532 kts 99°
2026-05-05 00:03 -32.78720 -11.49070 41238 ft 534 kts 99°
2026-05-05 00:03 -32.80162 -11.40444 41251 ft 536 kts 99°
2026-05-05 00:04 -32.81601 -11.31805 41233 ft 535 kts 98°
2026-05-05 00:04 -32.83037 -11.23145 41237 ft 534 kts 99°
2026-05-05 00:05 -32.84463 -11.14506 41240 ft 534 kts 98°
2026-05-05 00:05 -32.85880 -11.05885 41241 ft 533 kts 98°
2026-05-05 00:06 -32.87293 -10.97239 41244 ft 536 kts 98°
2026-05-05 00:06 -32.88705 -10.88571 41245 ft 533 kts 98°
2026-05-05 00:07 -32.90094 -10.79993 41237 ft 532 kts 99°
2026-05-05 00:07 -32.91486 -10.71368 41234 ft 531 kts 98°
2026-05-05 00:08 -32.92877 -10.62703 41231 ft 532 kts 99°
2026-05-05 00:08 -32.94260 -10.54063 41236 ft 532 kts 99°
2026-05-05 00:09 -32.95622 -10.45502 41243 ft 531 kts 98°
2026-05-05 00:09 -32.96994 -10.36834 41240 ft 531 kts 99°
2026-05-05 00:10 -32.98348 -10.28250 41230 ft 530 kts 98°
2026-05-05 00:10 -32.99690 -10.19700 41232 ft 528 kts 98°
2026-05-05 00:11 -33.01040 -10.11060 41235 ft 529 kts 98°
2026-05-05 00:11 -33.02372 -10.02486 41233 ft 530 kts 99°
2026-05-05 00:12 -33.03697 -9.93920 41240 ft 529 kts 98°
2026-05-05 00:12 -33.05020 -9.85328 41240 ft 529 kts 98°
2026-05-05 00:13 -33.06347 -9.76673 41243 ft 529 kts 98°
2026-05-05 00:13 -33.07659 -9.68068 41250 ft 528 kts 98°
2026-05-05 00:14 -33.08962 -9.59487 41250 ft 528 kts 99°
2026-05-05 00:14 -33.10261 -9.50890 41249 ft 528 kts 98°
2026-05-05 00:15 -33.11545 -9.42353 41249 ft 528 kts 98°
2026-05-05 00:15 -33.12837 -9.33714 41244 ft 526 kts 98°
2026-05-05 00:16 -33.14110 -9.25160 41242 ft 528 kts 98°
2026-05-05 00:16 -33.15379 -9.16595 41260 ft 527 kts 98°
2026-05-05 00:17 -33.16648 -9.07990 41253 ft 528 kts 98°
2026-05-05 00:17 -33.17914 -8.99356 41271 ft 527 kts 98°
2026-05-05 00:18 -33.19163 -8.90805 41262 ft 527 kts 98°
2026-05-05 00:18 -33.20413 -8.82197 41270 ft 527 kts 98°
2026-05-05 00:19 -33.21657 -8.73588 41271 ft 528 kts 98°
2026-05-05 00:19 -33.22889 -8.65020 41275 ft 527 kts 98°
2026-05-05 00:20 -33.24117 -8.56433 41271 ft 526 kts 98°
2026-05-05 00:20 -33.25341 -8.47832 41277 ft 527 kts 98°
2026-05-05 00:21 -33.26560 -8.39223 41278 ft 526 kts 98°
2026-05-05 00:21 -33.27773 -8.30615 41261 ft 525 kts 97°
2026-05-05 00:22 -33.28972 -8.22056 41266 ft 526 kts 98°
2026-05-05 00:22 -33.30174 -8.13438 41267 ft 526 kts 98°
2026-05-05 00:23 -33.31365 -8.04852 41269 ft 526 kts 97°
2026-05-05 00:23 -33.32552 -7.96242 41269 ft 525 kts 97°
2026-05-05 00:24 -33.33727 -7.87684 41273 ft 525 kts 97°
2026-05-05 00:24 -33.34903 -7.79069 41277 ft 524 kts 97°
2026-05-05 00:25 -33.36065 -7.70505 41279 ft 524 kts 98°
2026-05-05 00:25 -33.37224 -7.61927 41280 ft 523 kts 97°
2026-05-05 00:26 -33.38375 -7.53361 41286 ft 524 kts 97°
2026-05-05 00:26 -33.39522 -7.44779 41286 ft 525 kts 98°
2026-05-05 00:27 -33.40668 -7.36152 41290 ft 523 kts 98°
2026-05-05 00:27 -33.41798 -7.27607 41278 ft 523 kts 97°
2026-05-05 00:28 -33.42922 -7.19050 41281 ft 523 kts 97°
2026-05-05 00:28 -33.44050 -7.10430 41282 ft 524 kts 97°
2026-05-05 00:29 -33.45159 -7.01895 41284 ft 524 kts 97°
2026-05-05 00:29 -33.46269 -6.93306 41279 ft 524 kts 97°
2026-05-05 00:30 -33.47378 -6.84678 41284 ft 524 kts 97°
2026-05-05 00:30 -33.48475 -6.76099 41284 ft 524 kts 97°
2026-05-05 00:31 -33.49567 -6.67505 41286 ft 523 kts 97°
2026-05-05 00:31 -33.50652 -6.58932 41292 ft 525 kts 97°
2026-05-05 00:32 -33.51732 -6.50329 41300 ft 524 kts 98°
2026-05-05 00:32 -33.52808 -6.41727 41298 ft 522 kts 97°
2026-05-05 00:33 -33.53876 -6.33126 41292 ft 523 kts 97°
2026-05-05 00:33 -33.54935 -6.24549 41291 ft 522 kts 97°
2026-05-05 00:34 -33.55992 -6.15941 41296 ft 522 kts 97°
2026-05-05 00:34 -33.57032 -6.07418 41304 ft 520 kts 97°
2026-05-05 00:35 -33.58074 -5.98833 41309 ft 521 kts 97°
2026-05-05 00:35 -33.59112 -5.90227 41310 ft 521 kts 97°
2026-05-05 00:36 -33.60139 -5.81664 41318 ft 522 kts 97°
2026-05-05 00:36 -33.61158 -5.73113 41312 ft 521 kts 97°
2026-05-05 00:37 -33.62173 -5.64552 41319 ft 521 kts 97°
2026-05-05 00:37 -33.63187 -5.55937 41325 ft 521 kts 97°
2026-05-05 00:38 -33.64189 -5.47373 41327 ft 521 kts 97°
2026-05-05 00:38 -33.65189 -5.38777 41324 ft 520 kts 97°